IRNSS-1D

Last updated on Jan. 15, 2021, 6:31 a.m. UTC

1 40547U 15018A   21014.61664750 -.00000276  00000-0  00000-0 0  9994
2 40547  28.8235 273.7921 0018362 180.7017 353.5129  1.00267570 21149
UTC
Height (km)
Latitude
Longitude
Inclination
Orbital Period
UTC large
Height (km)
Speed (km/s)
/
Latitude / Longitude
Inclination (degrees)
Orbital Period (minutes)
Azimuth
Elevation
Range (km)
Doppler Factor
iOS Compass Heading
iOS Angle

Next 30 passes for location: Hong Kong

Rise time Rise Azimuth (degrees) Set time Set Azimuth (degrees) Duration Max altitude (degrees)

No matching passes for this satellites